Flag for Germany Weather past 2 weeks in Laatzen, Lower Saxony, Germany

Now
74 °F

Partly sunny.


Feels Like: 77 °F
Forecast: 60 / 70 °F
Wind: 10 mph from Northeast

Location: Hannover

Current Time: Jul 24, 2014 at 3:15:48 PM

Latest Report: Jul 24, 2014 at 2:00 PM


Visibility: 28 mi

Pressure: 30.06 "Hg

Humidity: 52%

Dew point: 55 °F

Location of LaatzenLocation

Historic Weather in Laatzen — Graph

°F

Laatzen temperature yesterday

Maximum temperature yesterday: 82 °F (at 4:00 PM)
Minimum temperature yesterday: 59 °F (at 6:00 AM)
Average temperature yesterday: 73 °F

Past Weeks' High & Low Weather Summary

 TemperatureHumidityPressure
High91 °F (Jul 19, 4:00 PM)100% (Jul 10, 4:00 AM)30.20 "Hg (Jul 10, 4:00 AM)
Low51 °F (Jul 12, 6:00 AM)25% (Jul 19, 4:00 PM)29.59 "Hg (Jul 9, 3:00 PM)
Average70 °F73%29.95 "Hg
* Reported Jul 9 3:00 PM — Jul 24 2:00 PM, Laatzen, Weather by CustomWeather, © 2014

Note: Actual official high and low records may vary slightly from our data, if they occured in-between our weather recording intervals... More about our weather records

Advertising

Laatzen weather history for previous 24 hours

 ConditionsComfort  
Time TempWeatherWind HumidityBarometerVisibility
2:00 PM
Jul 24
74 °FPartly sunny.10 mph52%30.06 "Hg28 mi
1:00 PM75 °FPartly sunny.8 mph55%30.05 "Hg28 mi
12:00 PM73 °FPartly sunny.8 mph58%30.05 "Hg28 mi
10:00 AM69 °FPartly sunny.5 mph68%30.06 "Hg25 mi
9:00 AM65 °FScattered clouds.5 mph78%30.06 "Hg25 mi
8:00 AM63 °FScattered clouds.5 mph81%30.06 "Hg25 mi
7:00 AM59 °FScattered clouds.2 mph87%30.06 "Hg25 mi
6:00 AM56 °FScattered clouds.2 mph89%30.05 "Hg25 mi
5:00 AM59 °FPassing clouds.2 mph81%30.05 "Hg25 mi
4:00 AM60 °FClear.5 mph78%30.05 "Hg25 mi
3:00 AM61 °FClear.3 mph77%30.05 "Hg25 mi
2:00 AM64 °FMild.5 mph70%30.06 "HgN/A
1:00 AM65 °FClear.3 mph67%30.07 "Hg25 mi
12:00 AM67 °FPassing clouds.5 mph61%30.07 "Hg25 mi
10:00 PM
Jul 23
73 °FPassing clouds.6 mph52%30.07 "Hg25 mi
9:00 PM75 °FPassing clouds.6 mph47%30.05 "Hg25 mi
8:00 PM78 °FPassing clouds.3 mph43%30.04 "Hg28 mi
7:00 PM79 °FPassing clouds.6 mph39%30.04 "Hg28 mi
6:00 PM82 °FPassing clouds.6 mph31%30.04 "Hg25 mi
5:00 PM82 °FPassing clouds.7 mph34%30.06 "Hg25 mi
4:00 PM82 °FPassing clouds.7 mph40%30.07 "Hg25 mi
3:00 PM81 °FPassing clouds.7 mph45%30.09 "Hg25 mi
Weather by CustomWeather, © 2014

See weather overviewHow to use our weather pages